TimeCDT,TemperatureF,Dew PointF,Humidity,Sea Level PressureIn,VisibilityMPH,Wind Direction,Wind SpeedMPH,Gust SpeedMPH,PrecipitationIn,Events,Conditions,WindDirDegrees,DateUTC
12:53 AM,87.1,69.1,55,29.98,10.0,SSW,15.0,-,N/A,,Clear,210,2012-07-19 05:53:00
1:53 AM,86.0,69.1,57,29.99,10.0,SSW,12.7,-,N/A,,Clear,210,2012-07-19 06:53:00
2:53 AM,84.0,68.0,58,29.99,10.0,SSW,12.7,-,N/A,,Clear,210,2012-07-19 07:53:00
3:53 AM,82.9,68.0,60,29.99,10.0,SSW,11.5,-,N/A,,Clear,210,2012-07-19 08:53:00
4:53 AM,81.0,68.0,65,29.99,10.0,SSW,12.7,-,N/A,,Clear,210,2012-07-19 09:53:00
5:53 AM,80.1,68.0,67,30.01,10.0,SSW,6.9,-,N/A,,Clear,210,2012-07-19 10:53:00
6:53 AM,79.0,69.1,72,30.02,10.0,SW,6.9,-,N/A,,Partly Cloudy,220,2012-07-19 11:53:00
7:53 AM,81.0,69.1,67,30.04,10.0,SSW,6.9,-,N/A,,Clear,210,2012-07-19 12:53:00
8:53 AM,84.0,66.9,56,30.05,10.0,WSW,10.4,-,N/A,,Partly Cloudy,240,2012-07-19 13:53:00
9:53 AM,87.1,66.0,49,30.07,10.0,West,11.5,-,N/A,,Partly Cloudy,270,2012-07-19 14:53:00
10:53 AM,90.0,66.0,45,30.07,10.0,SW,10.4,-,N/A,,Partly Cloudy,220,2012-07-19 15:53:00
11:53 AM,93.0,63.0,37,30.06,10.0,SW,11.5,-,N/A,,Scattered Clouds,230,2012-07-19 16:53:00
12:53 PM,96.1,63.0,33,30.05,10.0,Variable,6.9,-,N/A,,Scattered Clouds,0,2012-07-19 17:53:00
1:53 PM,97.0,62.1,31,30.02,10.0,WSW,11.5,-,N/A,,Partly Cloudy,240,2012-07-19 18:53:00
2:53 PM,98.1,61.0,29,30.01,10.0,Variable,3.5,-,N/A,,Partly Cloudy,0,2012-07-19 19:53:00
3:53 PM,100.0,62.1,29,29.99,10.0,South,11.5,-,N/A,,Partly Cloudy,170,2012-07-19 20:53:00
4:53 PM,99.0,63.0,30,29.96,10.0,SSE,8.1,-,N/A,,Partly Cloudy,160,2012-07-19 21:53:00
5:53 PM,100.0,61.0,28,29.94,10.0,WSW,6.9,-,N/A,,Partly Cloudy,250,2012-07-19 22:53:00
6:53 PM,99.0,62.1,30,29.93,10.0,SSW,9.2,-,N/A,,Partly Cloudy,210,2012-07-19 23:53:00
7:53 PM,96.1,64.0,35,29.92,10.0,South,11.5,-,N/A,,Partly Cloudy,170,2012-07-20 00:53:00
8:53 PM,93.0,64.0,38,29.93,10.0,SSE,10.4,-,N/A,,Partly Cloudy,160,2012-07-20 01:53:00
9:53 PM,91.0,64.0,41,29.96,10.0,South,6.9,-,N/A,,Clear,190,2012-07-20 02:53:00
10:53 PM,89.1,64.9,45,29.98,10.0,South,6.9,-,N/A,,Clear,190,2012-07-20 03:53:00
11:53 PM,89.1,64.9,45,29.99,10.0,South,9.2,-,N/A,,Clear,180,2012-07-20 04:53:00